Le nostre stazioni meteo in Italia

Pubblicità
Il mio iltempo24.it
Pescara, Italia (16230): Temperatura & dewpoint: 10.02.2019 07:00:00 - 16.02.2019 07:00:00 (CET)Pescara, Italia (16230): velocità del vento: 10.02.2019 07:00:00 - 16.02.2019 07:00:00 (CET)Pescara, Italia (16230): direzione del vento: 10.02.2019 07:00:00 - 16.02.2019 07:00:00 (CET)Pescara, Italia (16230): reduced air pressure: 10.02.2019 07:00:00 - 16.02.2019 07:00:00 (CET)Pescara, Italia (16230): visibility: 10.02.2019 07:00:00 - 16.02.2019 07:00:00 (CET)Pescara, Italia (16230): precipitazioni: 10.02.2019 07:00:00 - 16.02.2019 07:00:00 (CET)
Data & Tempo tt [°C] td [°C] ff [km/h] ff [kn] dd ppp [hPa] vv [km] rr [mm]
16.02.2019 07:00:00 1,1 0,0 11 6 SO 1031,4 10 -
16.02.2019 06:00:00 1,0 0,0 11 6 SO - 10 -
16.02.2019 05:00:00 3,0 1,0 9 5 OSO - 10 -
16.02.2019 04:00:00 1,6 0,4 9 5 SO 1031,3 10 0,0
16.02.2019 03:00:00 4,0 2,0 9 5 OSO - 10 -
16.02.2019 02:00:00 4,0 2,0 9 5 SO - 10 -
16.02.2019 01:00:00 3,0 1,5 11 6 SSO 1031,3 10 -
16.02.2019 00:00:00 6,0 3,0 8 4 SO - 10 -
15.02.2019 23:00:00 6,0 3,0 9 5 SSO - 10 -
15.02.2019 22:00:00 7,9 3,7 4 2 SSO 1031,5 15 0,0
15.02.2019 21:00:00 10,0 4,0 5 3 NO - 10 -
15.02.2019 20:00:00 11,0 5,0 9 5 NNO - 10 -
15.02.2019 19:00:00 11,3 5,1 11 6 NNO 1031,0 15 -
15.02.2019 18:00:00 12,0 4,0 15 8 NNO - 10 -
15.02.2019 17:00:00 12,0 5,0 18 10 NNO - 10 -
15.02.2019 16:00:00 12,2 5,4 22 12 N 1029,4 30 0,0
15.02.2019 15:00:00 13,0 6,0 22 12 N - 10 -
15.02.2019 14:00:00 13,0 6,0 22 12 NNE - 10 -
15.02.2019 13:00:00 13,4 4,9 26 14 N 1029,7 30 -
15.02.2019 12:00:00 13,0 4,0 22 12 N - 10 -
15.02.2019 11:00:00 14,0 4,0 16 9 N - 10 -
15.02.2019 10:00:00 10,7 1,8 11 6 SSO 1030,9 30 0,0
15.02.2019 09:00:00 6,0 1,0 11 6 SO - 10 -
15.02.2019 08:00:00 2,0 -1,0 9 5 SO - 10 -
15.02.2019 07:00:00 0,2 -1,8 8 4 SSO 1031,0 20 -
15.02.2019 06:00:00 1,0 -1,0 8 4 SO - 10 -
15.02.2019 05:00:00 0,0 -1,0 9 5 SO - 10 -
15.02.2019 04:00:00 1,2 -0,5 9 5 SO 1031,3 10 0,0
15.02.2019 03:00:00 1,0 0,0 11 6 SSO - 10 -
15.02.2019 02:00:00 1,0 -1,0 9 5 SO - 10 -
15.02.2019 01:00:00 2,7 0,7 9 5 SO 1032,3 20 -
15.02.2019 00:00:00 2,0 1,0 9 5 SO - 10 -
14.02.2019 23:00:00 3,0 1,0 8 4 SO - 10 -
14.02.2019 22:00:00 4,7 1,8 8 4 OSO 1032,0 30 0,0
14.02.2019 21:00:00 4,0 1,0 11 6 SO - 10 -
14.02.2019 20:00:00 6,0 1,0 4 2 - - 10 -
14.02.2019 19:00:00 7,2 0,2 5 3 S 1032,4 10 -
14.02.2019 18:00:00 10,0 -1,0 4 2 - - 10 -
14.02.2019 17:00:00 11,0 1,0 13 7 N - 10 -
14.02.2019 16:00:00 12,3 3,3 8 4 NNO 1033,0 20 0,0
14.02.2019 15:00:00 13,0 3,0 15 8 NNE - 10 -
14.02.2019 14:00:00 13,0 2,0 18 10 NE - 10 -
14.02.2019 13:00:00 14,8 0,2 13 7 N 1034,0 20 -
14.02.2019 12:00:00 15,0 0,0 9 5 - - 10 -
14.02.2019 11:00:00 13,0 0,0 9 5 SO - 10 -
14.02.2019 10:00:00 10,1 0,5 11 6 SO 1035,6 20 0,0
14.02.2019 09:00:00 5,0 0,0 11 6 SO - 10 -
14.02.2019 08:00:00 1,0 -1,0 9 5 SO - 10 -
14.02.2019 07:00:00 0,8 -1,6 8 4 SO 1035,9 30 -
14.02.2019 06:00:00 2,0 -1,0 11 6 SO - 10 -
14.02.2019 05:00:00 2,0 -1,0 13 7 SO - 10 -
14.02.2019 04:00:00 1,9 -1,5 11 6 SO 1035,9 20 0,0
14.02.2019 03:00:00 3,0 -2,0 11 6 SSO - 10 -
14.02.2019 02:00:00 5,0 -1,0 4 2 - - 10 -
14.02.2019 01:00:00 7,5 -1,5 5 3 ONO 1036,8 20 -
14.02.2019 00:00:00 9,0 -1,0 11 6 NO - 10 -
13.02.2019 23:00:00 8,0 -1,0 8 4 O - 10 -
13.02.2019 22:00:00 8,1 -1,8 9 5 ONO 1036,5 20 0,0
13.02.2019 21:00:00 8,0 -1,0 9 5 O - 10 -
13.02.2019 20:00:00 8,0 -1,0 13 7 NNO - 10 -
13.02.2019 19:00:00 8,2 0,9 4 2 N 1036,2 25 -
13.02.2019 18:00:00 8,0 0,0 11 6 NO - 10 -
13.02.2019 17:00:00 10,0 -1,0 22 12 N - 10 -
13.02.2019 16:00:00 10,1 -1,6 24 13 N 1034,2 20 0,0
13.02.2019 15:00:00 11,0 -2,0 16 9 N - 10 -
13.02.2019 14:00:00 11,0 -2,0 24 13 NNO - 10 -
13.02.2019 13:00:00 11,0 -0,8 13 7 N 1034,6 30 -
13.02.2019 12:00:00 10,0 -1,0 13 7 NNE - 10 -
13.02.2019 11:00:00 10,0 0,0 9 5 NNE - 10 -
13.02.2019 10:00:00 8,9 1,1 4 2 N 1035,3 30 0,0
13.02.2019 09:00:00 4,0 3,0 8 4 SO - 10 -
13.02.2019 08:00:00 3,0 1,0 8 4 SO - 10 -
13.02.2019 07:00:00 2,2 0,7 4 2 SO 1033,9 30 -
13.02.2019 06:00:00 3,0 1,0 4 2 SSO - 10 -
13.02.2019 05:00:00 3,0 2,0 5 3 O - 10 -
13.02.2019 04:00:00 3,0 1,6 8 4 SO 1032,2 25 0,0
13.02.2019 03:00:00 3,0 2,0 9 5 SO - 10 -
13.02.2019 02:00:00 4,0 2,0 9 5 SO - 10 -
13.02.2019 01:00:00 3,6 1,5 9 5 SO 1031,7 25 -
13.02.2019 00:00:00 4,0 2,0 8 4 SSO - 10 -
12.02.2019 23:00:00 4,0 2,0 8 4 SO - 10 -
12.02.2019 22:00:00 3,4 1,7 8 4 SO 1030,2 20 0,0
12.02.2019 21:00:00 5,0 2,0 8 4 SO - 10 -
12.02.2019 20:00:00 5,0 2,0 9 5 SO - 10 -
12.02.2019 19:00:00 6,7 2,2 5 3 OSO 1027,6 10 -
12.02.2019 18:00:00 9,0 4,0 8 4 N - 10 -
12.02.2019 17:00:00 11,0 3,0 13 7 N - 10 -
12.02.2019 16:00:00 11,3 3,6 16 9 N 1025,1 15 0,0
12.02.2019 15:00:00 11,0 2,0 18 10 NNE - 10 -
12.02.2019 14:00:00 12,0 2,0 18 10 N - 10 -
12.02.2019 13:00:00 12,4 0,4 15 8 N 1023,9 30 -
12.02.2019 12:00:00 12,0 0,0 16 9 N - 10 -
12.02.2019 11:00:00 12,0 0,0 15 8 N - 10 -
12.02.2019 10:00:00 11,4 0,6 11 6 ONO 1023,6 30 0,0
12.02.2019 09:00:00 6,0 3,0 13 7 SSO - 10 -
12.02.2019 08:00:00 3,0 1,0 9 5 SO - 10 -
12.02.2019 07:00:00 3,5 0,6 9 5 SO 1021,7 30 -
12.02.2019 06:00:00 4,0 1,0 11 6 S - 10 -
12.02.2019 05:00:00 8,0 0,0 8 4 NO - 10 -
12.02.2019 04:00:00 5,5 2,5 8 4 SO 1020,1 20 0,0
12.02.2019 03:00:00 5,0 3,0 5 3 - - 10 -
12.02.2019 02:00:00 5,0 3,0 15 8 SO - 10 -
12.02.2019 01:00:00 5,2 3,6 13 7 SO 1019,6 15 -
12.02.2019 00:00:00 6,0 2,0 5 3 - - 8 -
11.02.2019 23:00:00 7,0 4,0 11 6 NE - 10 -
11.02.2019 22:00:00 5,6 3,4 22 12 ENE 1018,0 12 0,0
11.02.2019 21:00:00 10,0 -1,0 9 5 NO - 10 -
11.02.2019 20:00:00 10,0 0,0 11 6 O - 10 -
11.02.2019 19:00:00 9,1 1,9 13 7 O 1013,0 20 -
11.02.2019 18:00:00 10,0 2,0 16 9 ONO - 10 -
11.02.2019 17:00:00 10,0 2,0 21 11 NO - 10 -
11.02.2019 16:00:00 10,9 2,9 18 10 NO 1010,7 15 0,0
11.02.2019 15:00:00 11,0 4,0 21 11 N - 10 -
11.02.2019 14:00:00 11,0 5,0 18 10 N - 10 -
11.02.2019 13:00:00 12,0 -1,7 11 6 NO 1007,9 8 -
11.02.2019 12:00:00 15,0 4,0 13 7 ONO - 10 -
11.02.2019 11:00:00 11,0 7,0 5 3 SSO - 10 -
11.02.2019 10:00:00 10,5 6,6 5 3 NNE 1007,6 20 0,0
11.02.2019 09:00:00 11,0 7,0 22 12 N - 8 -
11.02.2019 08:00:00 15,0 4,0 26 14 SSO - 10 -
11.02.2019 07:00:00 15,2 3,0 15 8 S 1005,6 30 -
11.02.2019 06:00:00 15,0 3,0 15 8 SO - 10 -
11.02.2019 05:00:00 15,0 2,0 21 11 SO - 10 -
11.02.2019 04:00:00 15,3 2,5 22 12 SSO 1006,5 10 0,0
11.02.2019 03:00:00 16,0 3,0 39 21 SO - 10 -
11.02.2019 02:00:00 17,0 2,0 37 20 SSO - 10 -
11.02.2019 01:00:00 16,4 1,7 42 23 SSO 1007,9 15 -
11.02.2019 00:00:00 16,0 2,0 37 20 SSO - 10 -
10.02.2019 23:00:00 16,0 2,0 41 22 SSO - 10 -
10.02.2019 22:00:00 15,7 2,0 39 21 SSO 1010,5 20 0,0
10.02.2019 21:00:00 15,0 2,0 31 17 SSO - 10 -
10.02.2019 20:00:00 16,0 2,0 41 22 SO - 10 -
10.02.2019 19:00:00 16,8 1,9 15 8 O 1013,8 10 -
10.02.2019 18:00:00 16,0 3,0 13 7 OSO - 10 -
10.02.2019 17:00:00 17,0 3,0 22 12 SSO - 10 -
10.02.2019 16:00:00 18,3 3,3 18 10 SO 1015,1 10 0,0
10.02.2019 15:00:00 18,0 4,0 16 9 SO - 10 -
10.02.2019 14:00:00 19,0 3,0 28 15 SSO - 10 -
10.02.2019 13:00:00 18,5 3,2 28 15 SSO 1017,6 20 -
10.02.2019 12:00:00 18,0 3,0 26 14 SO - 10 -
10.02.2019 11:00:00 17,0 5,0 22 12 SO - 10 -
10.02.2019 10:00:00 11,8 5,0 4 2 - 1020,4 30 0,0
10.02.2019 09:00:00 6,0 4,0 5 3 O - 10 -
10.02.2019 08:00:00 2,0 1,0 5 3 OSO - 10 -
10.02.2019 07:00:00 1,5 0,7 4 2 N 1021,1 20 -

tt = Temperatura
td = dewpoint
ff = velocità del vento
dd = direzione del vento
ppp = reduced air pressure
vv = visibility
rr = precipitazioni

Stazioni seguenti

WeatherPro
AMSI
MeteoEarth